Weather Roundup
Issued by NWS Corpus Christi, TX

Home | Current Version | Previous Version | Text Only | Print | Product List | Glossary On
Versions: 1 2 3 4 5 6 7 8 9 10 11 12 13 14 15 16 17 18 19 20 21 22 23 24 25 26 27 28 29 30 31 32 33 34 35 36 37 38 39 40 41 42 43 44 45 46 47 48 49 50
000
ASUS44 KCRP 191310
HRRCRP

SOUTH TEXAS REGIONAL WEATHER ROUNDUP
NATIONAL WEATHER SERVICE CORPUS CHRISTI TX
700 AM CST THU JAN 19 2017


TXZ229>244-191400-
...CORPUS CHRISTI AREA OBSERVATIONS...

CITY           SKY/WX    TMP DP  RH WIND       PRES   REMARKS
CORPUS CHRISTI CLOUDY    57  56  96 NW5       29.92R
NAS CORPUS CHR CLOUDY    58  56  93 CALM      29.91R
ROCKPORT       CLOUDY    57  53  86 NW9       29.93R
KINGSVILLE NAS DRIZZLE   58  58 100 NE3       29.92S FOG
ALICE          CLOUDY    57  56  96 CALM      29.92S
ORANGE GROVE   CLOUDY    58  57  97 CALM      29.93R
FALFURRIAS     CLOUDY    59  58  96 CALM      29.91F
$$

...VICTORIA AREA OBSERVATIONS...

CITY           SKY/WX    TMP DP  RH WIND       PRES   REMARKS
VICTORIA       LGT RAIN  54  53  97 E6        29.90F FOG
BEEVILLE       LGT RAIN  51  51 100 CALM      29.92R
PLEASANTON     CLOUDY    54  53  99 CALM      29.91S
SAN ANTONIO    CLOUDY    53  50  89 SW3       29.90R
$$

...LAREDO AREA OBSERVATIONS...

CITY           SKY/WX    TMP DP  RH WIND       PRES   REMARKS
LAREDO         CLOUDY    59  49  69 SE5       29.92S
COTULLA        CLOUDY    54  51  90 E3        29.91F FOG
DEL RIO        FOG       42  42 100 CALM      29.91S VSB 1/4
MCALLEN        CLOUDY    62  57  83 CALM      29.92F
HEBBRONVILLE   CLOUDY    58  55  88 CALM      29.93S
$$

...OTHER TEXAS OBSERVATIONS...

CITY           SKY/WX    TMP DP  RH WIND       PRES   REMARKS
BROWNSVILLE    CLOUDY    62  60  93 SE5       29.92S
HOUSTON        HVY RAIN  55  53  93 CALM      29.89S FOG
COL. STATION   CLOUDY    52  51  97 VRB3      29.87F
AUSTIN         MOCLDY    52  50  93 W3        29.86F
WACO           CLOUDY    50  50 100 SW7       29.86F
FORT WORTH     FOG       48  48 100 S8        29.81F VSB 1/8
WICHITA FALLS  PTCLDY    39  38  96 S9        29.76F FOG
LUBBOCK        CLEAR     41  36  82 SW17      29.70F
EL PASO        PTCLDY    47  33  58 W15       29.94S
$$

...MARINE OBSERVATIONS...

STATION/POSITION TIME  SKY/WX   TEMP    WIND        PRES    VSBY  WAVE   SWELL
                                AIR SEA DIR/SP/G                  HT/PER HT/PER
                 (UTC)          (F)     (DEG/KT/KT) (MB)    (MI)  (FT/S) (FT/S)
PORT ARANSAS     1200            57 63   10/  9/ 11 1011.9F
BUOY 90 E PORT A 1150            70 73  250/ 10/ 14 1012.0          3/ 7   3/ 7
BUOY 45 SE BAFFI 1150            66     290/  6/ 10 1012.1          3/ 7   3/ 7
BUOY 200 E PT IS 1150            75 75  170/ 12/ 14 1013.2          3/ 7   3/ 7
BUOY 15 E GALVES 1150            64 64  120/ 10/ 12 1010.9          2/ 8   2/ 8
$$




USA.gov is the U.S. government's official web portal to all federal, state and local government web resources and services.